When you browse on this site, cookies collect data to enhance your experience and personalize the content and advertising you see.
Visit our Privacy Policy to learn more. By continuing to use the site, you agree to this use of cookies and data.
  • In Portugal
  • List of Countries
  • For 7 days
  • Water Temperature
  • Satellite Maps
  • Weather Map
  • Weather Widgets
  • user-avatar
    Login

    Hourly Weather Baraki Barak

    Today, 24 July, Wednesday

    Time Temperature Precipitation Wind Pressure Humidity
    00:00 +26°C° 0 mm 1 mps 598 mmHg 45%
    01:00 +25°C° 0 mm 1 mps 597 mmHg 47%
    02:00 +25°C° 0 mm 1 mps 597 mmHg 49%
    03:00 +22°C° 0 mm 0 mps 597 mmHg 50%
    04:00 +21°C° 0 mm 0 mps 596 mmHg 50%
    05:00 +23°C° 0 mm 1 mps 596 mmHg 54%
    06:00 +24°C° 0 mm 1 mps 597 mmHg 47%
    07:00 +26°C° 0 mm 1 mps 598 mmHg 40%
    08:00 +28°C° 0 mm 1 mps 599 mmHg 33%
    09:00 +30°C° 0 mm 1 mps 599 mmHg 27%
    10:00 +31°C° 0 mm 1 mps 599 mmHg 22%
    11:00 +34°C° 0 mm 2 mps 599 mmHg 17%
    12:00 +35°C° 0 mm 2 mps 600 mmHg 14%
    13:00 +36°C° 0 mm 3 mps 600 mmHg 11%
    14:00 +38°C° 0 mm 4 mps 600 mmHg 8%
    15:00 +38°C° 0 mm 4 mps 600 mmHg 8%
    16:00 +38°C° 0 mm 4 mps 599 mmHg 7%
    17:00 +40°C° 0 mm 4 mps 599 mmHg 7%
    18:00 +36°C° 0 mm 4 mps 598 mmHg 10%
    19:00 +34°C° 0 mm 5 mps 598 mmHg 14%
    20:00 +32°C° 0 mm 5 mps 597 mmHg 17%
    21:00 +29°C° 0 mm 4 mps 597 mmHg 21%
    22:00 +28°C° 0 mm 3 mps 597 mmHg 25%
    23:00 +27°C° 0 mm 2 mps 596 mmHg 30%

    Tomorrow, 25 July, Thursday

    Time Temperature Precipitation Wind Pressure Humidity
    00:00 +26°C° 0 mm 2 mps 596 mmHg 31%
    01:00 +25°C° 0 mm 1 mps 596 mmHg 32%
    02:00 +25°C° 0 mm 1 mps 596 mmHg 33%
    03:00 +24°C° 0 mm 1 mps 595 mmHg 33%
    04:00 +23°C° 0 mm 1 mps 595 mmHg 34%
    05:00 +22°C° 0 mm 1 mps 594 mmHg 35%
    06:00 +24°C° 0 mm 1 mps 595 mmHg 31%
    07:00 +26°C° 0 mm 1 mps 596 mmHg 27%
    08:00 +28°C° 0 mm 1 mps 597 mmHg 22%
    09:00 +29°C° 0 mm 1 mps 598 mmHg 19%
    10:00 +31°C° 0 mm 1 mps 598 mmHg 17%
    11:00 +32°C° 0 mm 2 mps 598 mmHg 14%
    12:00 +35°C° 0 mm 2 mps 598 mmHg 12%
    13:00 +36°C° 0 mm 2 mps 598 mmHg 11%
    14:00 +37°C° 0 mm 2 mps 598 mmHg 10%
    15:00 +37°C° 0 mm 2 mps 598 mmHg 10%
    16:00 +37°C° 0 mm 3 mps 598 mmHg 10%
    17:00 +38°C° 0 mm 3 mps 598 mmHg 10%
    18:00 +36°C° 0 mm 3 mps 597 mmHg 14%
    19:00 +34°C° 0 mm 3 mps 597 mmHg 18%
    20:00 +31°C° 0 mm 3 mps 597 mmHg 23%
    21:00 +30°C° 0 mm 2 mps 596 mmHg 27%
    22:00 +28°C° 0 mm 2 mps 596 mmHg 30%
    23:00 +27°C° 0 mm 1 mps 596 mmHg 34%

    Day after tomorrow, 26 July, Friday

    Time Temperature Precipitation Wind Pressure Humidity
    00:00 +26°C° 0 mm 1 mps 595 mmHg 35%
    01:00 +25°C° 0 mm 1 mps 595 mmHg 35%
    02:00 +25°C° 0 mm 1 mps 594 mmHg 36%
    03:00 +24°C° 0 mm 1 mps 594 mmHg 36%
    04:00 +21°C° 0 mm 0 mps 594 mmHg 37%
    05:00 +20°C° 0 mm 0 mps 594 mmHg 37%
    06:00 +22°C° 0 mm 0 mps 595 mmHg 33%
    07:00 +26°C° 0 mm 1 mps 596 mmHg 29%
    08:00 +27°C° 0 mm 1 mps 597 mmHg 25%
    09:00 +29°C° 0 mm 1 mps 597 mmHg 23%
    10:00 +30°C° 0 mm 2 mps 597 mmHg 20%
    11:00 +32°C° 0 mm 2 mps 598 mmHg 17%
    12:00 +34°C° 0 mm 2 mps 598 mmHg 15%
    13:00 +35°C° 0 mm 2 mps 598 mmHg 14%
    14:00 +36°C° 0 mm 2 mps 598 mmHg 13%
    15:00 +36°C° 0 mm 3 mps 598 mmHg 14%
    16:00 +36°C° 0 mm 5 mps 597 mmHg 15%
    17:00 +35°C° 0 mm 6 mps 597 mmHg 16%
    18:00 +34°C° 0 mm 5 mps 597 mmHg 19%
    19:00 +32°C° 0 mm 4 mps 596 mmHg 23%
    20:00 +29°C° 0 mm 3 mps 596 mmHg 27%
    21:00 +28°C° 0 mm 2 mps 596 mmHg 34%
    22:00 +27°C° 0 mm 2 mps 596 mmHg 40%
    23:00 +26°C° 0 mm 1 mps 596 mmHg 47%

    27 July, Saturday

    Time Temperature Precipitation Wind Pressure Humidity
    00:00 +25°C° 0.1 mm 1 mps 596 mmHg 53%
    01:00 +24°C° 0.1 mm 1 mps 595 mmHg 58%
    02:00 +21°C° 0.1 mm 0 mps 595 mmHg 64%
    03:00 +21°C° 0.1 mm 0 mps 595 mmHg 66%
    04:00 +20°C° 0.1 mm 0 mps 594 mmHg 68%
    05:00 +20°C° 0.1 mm 0 mps 594 mmHg 70%
    06:00 +21°C° 0 mm 0 mps 595 mmHg 63%
    07:00 +24°C° 0 mm 1 mps 595 mmHg 57%
    08:00 +26°C° 0 mm 1 mps 596 mmHg 50%
    09:00 +27°C° 0 mm 1 mps 597 mmHg 43%
    10:00 +29°C° 0 mm 1 mps 597 mmHg 35%
    11:00 +31°C° 0 mm 2 mps 598 mmHg 27%
    12:00 +32°C° 0 mm 2 mps 598 mmHg 23%
    13:00 +34°C° 0 mm 3 mps 598 mmHg 18%
    14:00 +36°C° 0 mm 3 mps 598 mmHg 13%
    15:00 +36°C° 0 mm 3 mps 598 mmHg 13%
    16:00 +36°C° 0 mm 3 mps 598 mmHg 14%
    17:00 +36°C° 0 mm 4 mps 598 mmHg 14%
    18:00 +34°C° 0 mm 4 mps 598 mmHg 17%
    19:00 +33°C° 0 mm 4 mps 597 mmHg 20%
    20:00 +30°C° 0 mm 4 mps 597 mmHg 23%
    21:00 +28°C° 0 mm 4 mps 597 mmHg 31%
    22:00 +27°C° 0 mm 3 mps 597 mmHg 40%
    23:00 +25°C° 0 mm 2 mps 597 mmHg 48%

    28 July, Sunday

    Time Temperature Precipitation Wind Pressure Humidity
    00:00 +25°C° 0.1 mm 2 mps 597 mmHg 50%
    01:00 +24°C° 0.1 mm 1 mps 596 mmHg 51%
    02:00 +21°C° 0.1 mm 0 mps 596 mmHg 53%
    03:00 +21°C° 0 mm 0 mps 596 mmHg 56%
    04:00 +20°C° 0 mm 0 mps 595 mmHg 59%
    05:00 +19°C° 0 mm 0 mps 595 mmHg 62%
    06:00 +23°C° 0 mm 1 mps 596 mmHg 57%
    07:00 +24°C° 0 mm 1 mps 597 mmHg 53%
    08:00 +25°C° 0 mm 1 mps 597 mmHg 49%
    09:00 +27°C° 0 mm 2 mps 598 mmHg 40%
    10:00 +29°C° 0 mm 2 mps 599 mmHg 32%
    11:00 +30°C° 0 mm 2 mps 599 mmHg 23%
    12:00 +33°C° 0 mm 3 mps 599 mmHg 20%
    13:00 +34°C° 0 mm 3 mps 600 mmHg 17%
    14:00 +35°C° 0 mm 3 mps 600 mmHg 14%
    15:00 +35°C° 0 mm 3 mps 600 mmHg 15%
    16:00 +35°C° 0 mm 3 mps 599 mmHg 17%
    17:00 +34°C° 0 mm 3 mps 599 mmHg 18%
    18:00 +31°C° 0.1 mm 3 mps 599 mmHg 28%
    19:00 +29°C° 0.1 mm 3 mps 598 mmHg 37%
    20:00 +26°C° 0.1 mm 3 mps 598 mmHg 47%
    21:00 +26°C° 0 mm 2 mps 598 mmHg 50%
    22:00 +25°C° 0 mm 2 mps 598 mmHg 53%
    23:00 +24°C° 0 mm 1 mps 598 mmHg 57%

    29 July, Monday

    Time Temperature Precipitation Wind Pressure Humidity
    00:00 +24°C° 0.1 mm 1 mps 598 mmHg 59%
    01:00 +21°C° 0.1 mm 0 mps 598 mmHg 62%
    02:00 +21°C° 0.1 mm 0 mps 598 mmHg 65%
    03:00 +21°C° 0 mm 0 mps 597 mmHg 68%
    04:00 +20°C° 0 mm 0 mps 597 mmHg 72%
    05:00 +22°C° 0 mm 1 mps 597 mmHg 75%
    06:00 +23°C° 0.1 mm 1 mps 598 mmHg 72%
    07:00 +23°C° 0.1 mm 1 mps 598 mmHg 68%
    08:00 +24°C° 0.1 mm 2 mps 599 mmHg 65%
    09:00 +26°C° 0 mm 2 mps 599 mmHg 55%
    10:00 +28°C° 0 mm 2 mps 600 mmHg 46%
    11:00 +30°C° 0 mm 3 mps 601 mmHg 36%
    12:00 +31°C° 0 mm 3 mps 601 mmHg 30%
    13:00 +34°C° 0 mm 4 mps 601 mmHg 25%
    14:00 +35°C° 0 mm 4 mps 601 mmHg 19%
    15:00 +35°C° 0 mm 4 mps 601 mmHg 19%
    16:00 +35°C° 0 mm 5 mps 600 mmHg 19%
    17:00 +35°C° 0 mm 5 mps 600 mmHg 19%
    18:00 +34°C° 0 mm 4 mps 600 mmHg 23%
    19:00 +31°C° 0 mm 3 mps 599 mmHg 26%
    20:00 +30°C° 0 mm 2 mps 599 mmHg 30%
    21:00 +29°C° 0 mm 1 mps 599 mmHg 35%
    22:00 +28°C° 0 mm 1 mps 599 mmHg 41%
    23:00 +27°C° 0 mm 1 mps 599 mmHg 46%
    Show more